Bradford County (N27)
Towanda, PA
Field Elevation: 730
Lat: 41°44.40N  Long: 76°26.83W
CTAF/Unicom Freq: 123.0000
   
     For Weather-by-Phone, call (570) 265-1024
Weather Advisories
10/25/2014 06:57 Z
Altimeter 29.94" Hg
Wind 240° @ 0 KT
Gusts --
Visibility 10 SM
Ceiling CLR
Temperature 3° C (37° F)
Dewpoint 1° C (34° F)
Relative Humidity 90%
Density Altitude --
Condensation Altitude 1,500 feet
  Wind and Runways
Indicated Runway = 23
History
 
 
More Info
All DigiWx sites map
NOAA Forecast
 
Airport IQ 5010
(LHV) Lock Haven
(PS81) Robert Packer Hospital
 
about DigiWx
 
FAA Disclaimer: The data displayed is for advisory purposes only and is not to be used for flight planning or operations. For official data, please call (570) 265-1024 to hear the current automated AWOS voice message.
  METAR N27 250657Z AUTO 24000KT 10SM CLR 03/01 A2994